• Processing (Info)

  • MPEC 2007-D35 : 2007 DE8

    The following Minor Planet Electronic Circular may be linked-to from your own Web pages, but must not otherwise be redistributed electronically.

    A form allowing access to any MPEC is at the bottom of this page.


    Read MPEC 2007-D34 Read MPEC 2007-D36


    M.P.E.C. 2007-D35                                Issued 2007 Feb. 22, 12:21 UT
    
         The Minor Planet Electronic Circulars contain information on unusual
             minor planets and routine data on comets.  They are published
       on behalf of Commission 20 of the International Astronomical Union by the
              Minor Planet Center, Smithsonian Astrophysical Observatory,
                              Cambridge, MA 02138, U.S.A.
    
                 Prepared using the Tamkin Foundation Computer Network
    
                                  MPC@CFA.HARVARD.EDU
              URL http://cfa-www.harvard.edu/iau/mpc.html  ISSN 1523-6714
    
                                       2007 DE8
    
    Observations:
         K07D08E* C2007 02 21.24077 07 12 23.36 +19 34 41.7          20.1 V ED035G96
         K07D08E  C2007 02 21.24640 07 12 19.51 +19 34 11.2          19.6 V ED035G96
         K07D08E  C2007 02 21.25205 07 12 15.66 +19 33 39.2          20.1 V ED035G96
         K07D08E  C2007 02 21.25771 07 12 11.80 +19 33 07.9          20.1 V ED035G96
         K07D08E  C2007 02 21.29679 07 11 45.27 +19 29 30.4          18.1 V ED035G96
         K07D08E  C2007 02 21.29858 07 11 44.08 +19 29 20.5          19.7 V ED035G96
         K07D08E  C2007 02 21.30038 07 11 42.86 +19 29 10.8          19.5 V ED035G96
         K07D08E  C2007 02 21.30216 07 11 41.67 +19 29 00.7          20.0 V ED035G96
         K07D08E  C2007 02 21.33346 07 11 20.61 +19 26 05.1          20.0 V ED035G96
         K07D08E  C2007 02 21.33496 07 11 19.49 +19 25 56.3                 ED035G96
         K07D08E  C2007 02 21.33647 07 11 18.60 +19 25 48.6          20.2 V ED035G96
         K07D08E  C2007 02 21.33799 07 11 17.57 +19 25 40.0          20.4 V ED035G96
         K07D08E  C2007 02 21.80160 07 06 24.81 +18 43 00.5          19.6 R ED035246
         K07D08E  C2007 02 21.80214 07 06 24.42 +18 42 52.8                 ED035246
         K07D08E  C2007 02 21.80406 07 06 23.17 +18 42 42.9                 ED035246
         K07D08E  C2007 02 21.80569 07 06 22.20 +18 42 34.1                 ED035246
         K07D08E  C2007 02 21.80617 07 06 21.85 +18 42 30.7                 ED035246
         K07D08E  C2007 02 21.80682 07 06 21.48 +18 42 32.2                 ED035246
         K07D08E  C2007 02 21.81251 07 06 17.72 +18 41 57.4                 ED035246
         K07D08E  C2007 02 21.81403 07 06 16.70 +18 41 48.2                 ED035246
         K07D08E  C2007 02 22.07439 07 03 33.30 +18 18 01.8          20.4 R ED035734
         K07D08E  C2007 02 22.07904 07 03 30.34 +18 17 34.6          21.5 R ED035734
         K07D08E  C2007 02 22.08369 07 03 27.27 +18 17 10.4          20.7 R ED035734
         K07D08E  C2007 02 22.17949 07 02 25.50 +18 08 30.4          19.4 V ED035G96
         K07D08E  C2007 02 22.18002 07 02 25.18 +18 08 27.8          20.0 V ED035G96
         K07D08E  C2007 02 22.18056 07 02 24.81 +18 08 24.8                 ED035G96
         K07D08E  C2007 02 22.18367 07 02 22.43 +18 08 07.5          20.0 R ED035448
         K07D08E  C2007 02 22.20187 07 02 10.88 +18 06 27.0          20.2 R ED035854
         K07D08E  C2007 02 22.20208 07 02 10.26 +18 06 26.0          20.1 R ED035448
         K07D08E  C2007 02 22.20768 07 02 07.00 +18 05 53.7          20.3 R ED035854
         K07D08E  C2007 02 22.22022 07 01 58.32 +18 04 44.2          20.2 R ED035448
    
    Observer details:
    246 Klet Observatory-KLENOT.  Observer M. Tichy.  1.06-m KLENOT Telescope
        + CCD.
    448 Desert Moon Observatory.  Observer B. L. Stevens.  0.3-m
        Schmidt-Cassegrain + CCD.
    734 Farpoint Observatory.  Observer G. Hug.  Measurer D. Tibbets.  0.7-m
        reflector + CCD.
    854 Sabino Canyon Observatory, Tucson.  Observer J. E. McGaha.  0.36-m f/10.0
        Schmidt-Cassegrain + CCD.
    G96 Mt. Lemmon Survey.  Observer R. E. Hill.  Measurers E. C. Beshore,
        E. J. Christensen, G. J. Garradd, A. R. Gibbs, A. D. Grauer, R. E. Hill,
        R. A. Kowalski, S. M. Larson, R. H. McNaught.  1.5-m reflector + CCD.
    
    Orbital elements:
    2007 DE8                                                 Earth MOID = 0.0502 AU
    Epoch 2007 Apr. 10.0 TT = JDT 2454200.5                 MPC
    M 296.00644              (2000.0)            P               Q
    n   1.20652153     Peri.  327.06984     +0.41769024     +0.90047244
    a   0.8738683      Node   327.14995     -0.77782852     +0.28545268
    e   0.3080834      Incl.   12.90848     -0.46959307     +0.32812519
    P   0.82           H   23.4           G   0.15           U   9
    Residuals in seconds of arc
    070221 G96  0.3+  0.0     070221 G96  0.4-  0.2-    070222 734  0.1+  0.0
    070221 G96  0.2+  0.6+    070221 246 (1.4-  4.3+)   070222 G96  0.2-  0.3-
    070221 G96  0.2+  0.1-    070221 246 (1.9-  0.5-)   070222 G96  0.2+  0.0
    070221 G96  0.1+  0.1-    070221 246 (1.6-  0.2+)   070222 G96  0.0   0.0
    070221 G96  0.2-  0.3-    070221 246  0.0   0.3+    070222 448  0.5+  0.0
    070221 G96  0.1+  0.2-    070221 246  0.5-  0.4-    070222 854 (1.5+  0.2+)
    070221 G96  0.0   0.2+    070221 246 (0.4+  4.7+)   070222 448  0.2-  0.8+
    070221 G96  0.2+  0.0     070221 246  0.4+  1.1+    070222 854  0.7+  0.7-
    070221 G96  0.3-  0.5-    070221 246  0.2+  0.3+    070222 448  0.5-  0.2+
    070221 G96 (1.9-  0.9-)   070222 734  1.0-  0.5+
    070221 G96  0.2-  0.1-    070222 734  0.3+  1.3-
    
    Ephemeris:
    2007 DE8                 a,e,i = 0.87, 0.31, 13                  q = 0.6046
    Date    TT    R. A. (2000) Decl.     Delta      r     Elong.  Phase     V
    2007 02 19    07 37.73   +22 53.7    0.0994   1.069   142.5    34.2    20.0
    2007 02 20    07 26.20   +21 26.8    0.0994   1.066   139.1    37.4    20.0
    2007 02 21    07 15.05   +19 57.0    0.0998   1.063   135.7    40.5    20.1
    2007 02 22    07 04.31   +18 25.5    0.100    1.059   132.3    43.7    20.2
    2007 02 23    06 54.03   +16 53.1    0.101    1.056   128.8    46.9    20.3
    2007 02 24    06 44.21   +15 20.7    0.102    1.052   125.5    50.0    20.4
    2007 02 25    06 34.86   +13 49.0    0.104    1.049   122.2    53.0    20.5
    2007 02 26    06 25.99   +12 18.8    0.105    1.045   119.0    56.0    20.6
    2007 02 27    06 17.59   +10 50.5    0.107    1.041   115.8    58.8    20.8
    2007 02 28    06 09.65   +09 24.6    0.109    1.038   112.8    61.6    20.9
    2007 03 01    06 02.14   +08 01.3    0.111    1.034   109.9    64.3    21.0
    2007 03 02    05 55.04   +06 41.0    0.114    1.030   107.0    66.9    21.1
    2007 03 03    05 48.33   +05 23.8    0.116    1.026   104.3    69.4    21.2
    2007 03 04    05 41.99   +04 09.7    0.119    1.022   101.6    71.8    21.3
    2007 03 05    05 35.99   +02 58.7    0.122    1.018    99.1    74.2    21.5
    2007 03 06    05 30.30   +01 50.8    0.124    1.014    96.6    76.4    21.6
    2007 03 07    05 24.91   +00 46.0    0.127    1.010    94.2    78.6    21.7
    2007 03 08    05 19.79   -00 16.0    0.130    1.005    91.9    80.6    21.8
    2007 03 09    05 14.92   -01 15.0    0.133    1.001    89.7    82.6    21.9
    2007 03 10    05 10.27   -02 11.4    0.136    0.997    87.6    84.6    22.0
    2007 03 11    05 05.83   -03 05.2    0.139    0.992    85.5    86.4    22.1
    
    Timothy B. Spahr             (C) Copyright 2007 MPC           M.P.E.C. 2007-D35
    

    Read MPEC 2007-D34 Read MPEC 2007-D36


    MPEC number:

    Enter an MPEC number in one of the following forms:

    • 1997-B01 (the full form)
    • J97B01 (the packed version of the full form)
    • B01 (the abbreviated form)